• Currently

    Reported at Lexington, Jim Kelly Field Airport, NE
    2:55 PM CST WED SEP 20 2017
  • 77°F25°C
  • Clear
    Clear
  • Feels Like:77°F25°CDew Point:34°F1°CHumidity:21% Winds: Calm Calm Pressure:29.88 in1012 hPaVisibility:10.00 miles16090.00 meters
Time Weather Temp Dew Point
Humidity Winds Visibility Pressure Precipitation
1 hr 24 hr
Wednesday, September 20
16:35 16:35 Sunny Sunny 79°F26°C 34°F1°C 19% ESE 3 mphESE 6 kph 10.0 miles16.1 km 29.88 in1012 hPa 0.00 in0.00 mm --
16:15 16:15 Sunny Sunny 79°F26°C 34°F1°C 20% S 7 mphS 11 kph 7.0 miles11.3 km 29.88 in1012 hPa 0.00 in0.00 mm --
15:55 15:55 Sunny Sunny 77°F25°C 33°F1°C 20% CalmCalm 10.0 miles16.1 km 29.88 in1012 hPa 0.00 in0.00 mm --
15:35 15:35 Sunny Sunny 77°F25°C 33°F0°C 20% NW 3 mphNW 6 kph 10.0 miles16.1 km 29.88 in1012 hPa 0.00 in0.00 mm --
15:15 15:15 Sunny Sunny 77°F25°C 32°F0°C 20% WNW 3 mphWNW 6 kph 10.0 miles16.1 km 29.88 in1012 hPa 0.00 in0.00 mm --
14:55 14:55 Sunny Sunny 76°F24°C 32°F0°C 20% CalmCalm 10.0 miles16.1 km 29.91 in1013 hPa 0.00 in0.00 mm --
14:35 14:35 Sunny Sunny 76°F24°C 32°F0°C 20% W 6 mphW 9 kph 10.0 miles16.1 km 29.91 in1013 hPa 0.00 in0.00 mm --
14:15 14:15 Sunny Sunny 74°F24°C 31°F-0°C 21% NNW 5 mphNNW 7 kph 10.0 miles16.1 km 29.91 in1013 hPa 0.00 in0.00 mm --
13:55 13:55 Sunny Sunny 75°F24°C 35°F2°C 23% CalmCalm 10.0 miles16.1 km 29.91 in1013 hPa 0.00 in0.00 mm --
13:35 13:35 Sunny Sunny 73°F23°C 33°F0°C 23% WNW 5 mphWNW 7 kph 10.0 miles16.1 km 29.91 in1013 hPa 0.00 in0.00 mm --
13:15 13:15 Sunny Sunny 73°F23°C 34°F1°C 24% N 5 mphN 7 kph 10.0 miles16.1 km 29.91 in1013 hPa 0.00 in0.00 mm --
12:55 12:55 Sunny Sunny 73°F23°C 34°F1°C 25% NW 9 mphNW 15 kph 10.0 miles16.1 km 29.91 in1013 hPa 0.00 in0.00 mm --
12:35 12:35 Sunny Sunny 71°F22°C 37°F2°C 28% WNW 3 mphWNW 6 kph 10.0 miles16.1 km 29.91 in1013 hPa 0.00 in0.00 mm --
12:15 12:15 Sunny Sunny 70°F21°C 35°F2°C 28% WNW 9 mphWNW 15 kph 10.0 miles16.1 km 29.94 in1014 hPa 0.00 in0.00 mm --
11:55 11:55 Sunny Sunny 69°F21°C 38°F3°C 31% WNW 8 mphWNW 13 kph 10.0 miles16.1 km 29.94 in1014 hPa 0.00 in0.00 mm --
11:35 11:35 Sunny Sunny 67°F20°C 37°F3°C 33% NW 7 mphNW 11 kph 10.0 miles16.1 km 29.94 in1014 hPa 0.00 in0.00 mm --
11:15 11:15 Sunny Sunny 67°F19°C 39°F4°C 36% NW 8 mphNW 13 kph 10.0 miles16.1 km 29.94 in1014 hPa 0.00 in0.00 mm --
10:55 10:55 Sunny Sunny 65°F18°C 42°F6°C 44% WNW 7 mphWNW 11 kph 10.0 miles16.1 km 29.94 in1014 hPa 0.00 in0.00 mm --
10:35 10:35 Sunny Sunny 62°F17°C 45°F7°C 53% NW 7 mphNW 11 kph 10.0 miles16.1 km 29.94 in1014 hPa 0.00 in0.00 mm --
10:15 10:15 Sunny Sunny 60°F15°C 45°F7°C 59% W 6 mphW 9 kph 10.0 miles16.1 km 29.94 in1014 hPa 0.00 in0.00 mm --
09:55 09:55 Sunny Sunny 58°F14°C 45°F7°C 63% W 7 mphW 11 kph 10.0 miles16.1 km 29.94 in1014 hPa 0.00 in0.00 mm --
09:35 09:35 Sunny Sunny 55°F13°C 44°F7°C 67% WNW 8 mphWNW 13 kph 10.0 miles16.1 km 29.94 in1014 hPa 0.00 in0.00 mm --
09:15 09:15 Sunny Sunny 53°F12°C 43°F6°C 69% WNW 8 mphWNW 13 kph 10.0 miles16.1 km 29.94 in1014 hPa 0.00 in0.00 mm --
08:55 08:55 Sunny Sunny 51°F11°C 44°F6°C 75% WNW 7 mphWNW 11 kph 10.0 miles16.1 km 29.91 in1013 hPa 0.00 in0.00 mm --
08:35 08:35 Sunny Sunny 49°F10°C 44°F6°C 81% WNW 8 mphWNW 13 kph 10.0 miles16.1 km 29.91 in1013 hPa 0.00 in0.00 mm --
08:15 08:15 Sunny Sunny 47°F8°C 43°F6°C 87% WNW 6 mphWNW 9 kph 10.0 miles16.1 km 29.91 in1013 hPa 0.00 in0.00 mm --
07:55 07:55 Sunny Sunny 46°F8°C 42°F6°C 87% WNW 7 mphWNW 11 kph 10.0 miles16.1 km 29.91 in1013 hPa 0.00 in0.00 mm --
07:35 07:35 Sunny Sunny 45°F7°C 42°F5°C 89% W 7 mphW 11 kph 10.0 miles16.1 km 29.91 in1013 hPa 0.00 in0.00 mm --
07:15 07:15 Clear Clear 45°F7°C 42°F5°C 89% W 6 mphW 9 kph 10.0 miles16.1 km 29.88 in1012 hPa 0.00 in0.00 mm --
06:55 06:55 Clear Clear 45°F7°C 42°F5°C 89% WNW 6 mphWNW 9 kph 10.0 miles16.1 km 29.88 in1012 hPa 0.00 in0.00 mm --
06:35 06:35 Clear Clear 45°F7°C 42°F5°C 88% NW 6 mphNW 9 kph 10.0 miles16.1 km 29.85 in1011 hPa 0.00 in0.00 mm --
06:15 06:15 Clear Clear 45°F7°C 42°F6°C 88% NW 7 mphNW 11 kph 10.0 miles16.1 km 29.85 in1011 hPa 0.00 in0.00 mm --
05:55 05:55 Clear Clear 46°F8°C 43°F6°C 87% NW 5 mphNW 7 kph 10.0 miles16.1 km 29.85 in1011 hPa 0.00 in0.00 mm --
05:35 05:35 Clear Clear 46°F8°C 43°F6°C 88% NW 8 mphNW 13 kph 10.0 miles16.1 km 29.85 in1011 hPa 0.00 in0.00 mm --
05:15 05:15 Clear Clear 47°F8°C 43°F6°C 86% WNW 7 mphWNW 11 kph 10.0 miles16.1 km 29.83 in1010 hPa 0.00 in0.00 mm --
04:55 04:55 Clear Clear 47°F8°C 43°F6°C 86% WNW 7 mphWNW 11 kph 10.0 miles16.1 km 29.83 in1010 hPa 0.00 in0.00 mm --
04:35 04:35 Clear Clear 48°F9°C 44°F6°C 85% WNW 8 mphWNW 13 kph 10.0 miles16.1 km 29.83 in1010 hPa 0.00 in0.00 mm --
04:15 04:15 Clear Clear 49°F9°C 44°F7°C 85% WNW 7 mphWNW 11 kph 10.0 miles16.1 km 29.83 in1010 hPa 0.00 in0.00 mm --
03:55 03:55 Clear Clear 49°F9°C 45°F7°C 86% WNW 8 mphWNW 13 kph 10.0 miles16.1 km 29.83 in1010 hPa 0.00 in0.00 mm --
03:35 03:35 Clear Clear 49°F9°C 44°F7°C 85% WNW 6 mphWNW 9 kph 10.0 miles16.1 km 29.8 in1009 hPa 0.00 in0.00 mm --
03:15 03:15 Clear Clear 49°F9°C 44°F6°C 82% WNW 6 mphWNW 9 kph 10.0 miles16.1 km 29.8 in1009 hPa 0.00 in0.00 mm --
02:55 02:55 Clear Clear 51°F11°C 45°F7°C 80% NW 5 mphNW 7 kph 10.0 miles16.1 km 29.8 in1009 hPa 0.00 in0.00 mm --
02:35 02:35 Clear Clear 51°F11°C 46°F8°C 80% NW 6 mphNW 9 kph 10.0 miles16.1 km 29.77 in1008 hPa 0.00 in0.00 mm --
02:15 02:15 Clear Clear 52°F11°C 46°F8°C 80% WNW 7 mphWNW 11 kph 10.0 miles16.1 km 29.77 in1008 hPa 0.00 in0.00 mm --
01:55 01:55 Clear Clear 51°F11°C 46°F8°C 82% WNW 6 mphWNW 9 kph 10.0 miles16.1 km 29.77 in1008 hPa 0.00 in0.00 mm --
01:35 01:35 Clear Clear 53°F12°C 47°F8°C 79% WNW 5 mphWNW 7 kph 10.0 miles16.1 km 29.74 in1007 hPa 0.00 in0.00 mm --
01:15 01:15 Clear Clear 56°F14°C 47°F8°C 71% NNW 6 mphNNW 9 kph 10.0 miles16.1 km 29.74 in1007 hPa 0.00 in0.00 mm --
00:55 00:55 Clear Clear 59°F15°C 47°F8°C 64% NNW 5 mphNNW 7 kph 10.0 miles16.1 km 29.71 in1006 hPa 0.00 in0.00 mm --
00:35 00:35 Clear Clear 60°F15°C 46°F8°C 62% CalmCalm 10.0 miles16.1 km 29.71 in1006 hPa 0.00 in0.00 mm --
00:15 00:15 Clear Clear 62°F16°C 46°F8°C 57% NW 8 mphNW 13 kph 10.0 miles16.1 km 29.68 in1005 hPa 0.00 in0.00 mm --